sim
Sign-in with your pilot id or email,
or register
Callsign
Passwort

Schedule Details

Flight Number: OEO2146
Departure: Leipzig Halle Airport (EDDP) at 05:55
Arrival: Thessaloniki International Airport (LGTS) at 08:20

Weather Information
Getting current METAR information for EDDP 192220Z 05009KT CAVOK 12/02 Q1031 NOSIG
Getting current METAR information for LGTS 192220Z 14004KT 9999 FEW020 13/09 Q1023 NOSIG

Schedule Frequency

Route Map